EW9807 Weather Reports


time (UTC)temp
C
wind
direction
speed
KPH
gust
KPH
rain 1hr
cm
rain 24hr
cm
rain mn
cm
humidity
%
barometer
mb
20260903001048 30 122 0.0 0.0 0.00 0.00 0.00 67 1014.6
20260903000548 30 122 0.0 0.0 0.00 0.00 0.00 66 1014.6
20260903000059 30 122 0.0 0.0 0.00 0.00 0.00 65 1014.7
20260902235548 30 122 0.0 0.0 0.00 0.00 0.00 65 1014.6
20260902235047 30 122 0.0 0.0 0.00 0.00 0.00 64 1014.5
20260902234548 30 122 0.0 0.0 0.00 0.00 0.00 65 1014.5
20260902234051 31 122 0.0 0.0 0.00 0.00 0.00 63 1014.5
20260902233547 31 122 0.0 0.0 0.00 0.00 0.00 61 1014.6
20260902233047 31 122 0.0 0.0 0.00 0.00 0.00 61 1014.6
20260902232548 31 122 0.0 0.0 0.00 0.00 0.00 60 1014.6
20260902232047 32 122 0.0 0.0 0.00 0.00 0.00 60 1014.6
20260902231548 32 122 0.0 0.0 0.00 0.00 0.00 59 1014.5
20260902231046 32 122 0.0 0.0 0.00 0.00 0.00 56 1014.5
20260902230546 32 122 0.0 0.0 0.00 0.00 0.00 55 1014.5
20260902230048 32 122 0.0 1.6 0.00 0.00 0.00 57 1014.5
20260902225548 32 122 0.0 3.2 0.00 0.00 0.00 56 1014.5
20260902225046 32 122 0.0 3.2 0.00 0.00 0.00 56 1014.5
20260902224605 32 122 0.0 1.6 0.00 0.00 0.00 57 1014.5
20260902224047 32 122 0.0 1.6 0.00 0.00 0.00 55 1014.6
20260902223547 32 122 0.0 4.8 0.00 0.00 0.00 54 1014.6
20260902223049 33 122 0.0 4.8 0.00 0.00 0.00 53 1014.6
20260902222545 33 169 0.0 1.6 0.00 0.00 0.00 53 1014.6
20260902222044 33 169 0.0 3.2 0.00 0.00 0.00 52 1014.5
20260902221544 33 149 0.0 3.2 0.00 0.00 0.00 52 1014.6
20260902221044 33 149 0.0 3.2 0.00 0.00 0.00 53 1014.7
20260902220544 33 149 0.0 3.2 0.00 0.00 0.00 51 1014.7
20260902220043 33 149 0.0 4.8 0.00 0.00 0.00 51 1014.6
20260902215542 33 149 1.6 4.8 0.00 0.00 0.00 50 1014.6
20260902215045 33 106 0.0 4.8 0.00 0.00 0.00 51 1014.6
20260902214609 33 103 0.0 4.8 0.00 0.00 0.00 50 1014.7
20260902214042 33 58 0.0 3.2 0.00 0.00 0.00 51 1014.7
20260902213541 33 346 0.0 3.2 0.00 0.00 0.00 51 1014.7
20260902213042 33 345 0.0 3.2 0.00 0.00 0.00 50 1014.8
20260902212541 33 345 0.0 3.2 0.00 0.00 0.00 50 1014.8
20260902212041 33 315 0.0 4.8 0.00 0.00 0.00 50 1014.7
20260902211541 33 293 1.6 4.8 0.00 0.00 0.00 49 1014.9
20260902211040 33 151 1.6 4.8 0.00 0.00 0.00 50 1014.9
20260902210544 33 136 0.0 6.4 0.00 0.00 0.00 50 1014.9
20260902210045 33 134 0.0 3.2 0.00 0.00 0.00 49 1014.9
20260902205538 33 143 1.6 3.2 0.00 0.00 0.00 52 1014.9
20260902205038 33 359 0.0 3.2 0.00 0.00 0.00 51 1014.9
20260902204538 33 359 0.0 3.2 0.00 0.00 0.00 53 1015.0
20260902204038 33 359 0.0 3.2 0.00 0.00 0.00 53 1015.1
20260902203536 33 359 0.0 3.2 0.00 0.00 0.00 51 1015.1
20260902203037 33 359 0.0 4.8 0.00 0.00 0.00 52 1015.1
20260902202536 33 359 0.0 4.8 0.00 0.00 0.00 51 1015.2
20260902202036 33 359 1.6 4.8 0.00 0.00 0.00 51 1015.3
20260902201539 33 360 1.6 4.8 0.00 0.00 0.00 50 1015.2
20260902201038 33 360 1.6 4.8 0.00 0.00 0.00 50 1015.2
20260902200536 34 360 0.0 6.4 0.00 0.00 0.00 50 1015.3
20260902200034 34 360 1.6 6.4 0.00 0.00 0.00 50 1015.3
20260902195533 33 108 0.0 3.2 0.00 0.00 0.00 52 1015.4
20260902195033 33 137 1.6 4.8 0.00 0.00 0.00 52 1015.5
20260902194538 33 217 1.6 4.8 0.00 0.00 0.00 54 1015.5
20260902194031 33 327 1.6 6.4 0.00 0.00 0.00 54 1015.7
20260902193531 33 327 1.6 6.4 0.00 0.00 0.00 51 1015.7
20260902193031 33 333 0.0 4.8 0.00 0.00 0.00 50 1015.7
20260902192529 33 333 1.6 4.8 0.00 0.00 0.00 51 1015.8
20260902192030 33 332 1.6 4.8 0.00 0.00 0.00 52 1016.0
20260902191529 33 327 1.6 4.8 0.00 0.00 0.00 52 1016.0
20260902191031 33 326 1.6 6.4 0.00 0.00 0.00 52 1016.0
20260902190529 33 325 1.6 6.4 0.00 0.00 0.00 52 1016.0
20260902190028 34 60 1.6 3.2 0.00 0.00 0.00 51 1016.0
20260902185526 34 139 1.6 6.4 0.00 0.00 0.00 49 1016.1
20260902185028 34 140 0.0 6.4 0.00 0.00 0.00 49 1016.2
20260902184526 34 28 1.6 4.8 0.00 0.00 0.00 49 1016.3
20260902184028 34 150 1.6 4.8 0.00 0.00 0.00 49 1016.4
20260902183526 34 325 0.0 4.8 0.00 0.00 0.00 52 1016.4
20260902183025 34 325 1.6 4.8 0.00 0.00 0.00 50 1016.5
20260902182525 34 336 1.6 4.8 0.00 0.00 0.00 51 1016.6
20260902182024 34 117 1.6 4.8 0.00 0.00 0.00 49 1016.7
20260902181524 34 278 1.6 4.8 0.00 0.00 0.00 52 1016.7
20260902181024 33 262 1.6 4.8 0.00 0.00 0.00 51 1016.7
20260902180526 33 238 1.6 3.2 0.00 0.00 0.00 53 1016.7
20260902180022 33 238 0.0 3.2 0.00 0.00 0.00 56 1016.8
20260902175523 32 238 0.0 3.2 0.00 0.00 0.00 57 1016.8
20260902175023 32 162 0.0 3.2 0.00 0.00 0.00 57 1016.8
20260902174525 32 162 0.0 4.8 0.00 0.00 0.00 55 1016.9
20260902174022 33 161 0.0 4.8 0.00 0.00 0.00 54 1016.9
20260902173522 33 220 0.0 4.8 0.00 0.00 0.00 53 1016.9
20260902173022 34 220 0.0 4.8 0.00 0.00 0.00 52 1017.0
20260902172525 34 164 1.6 3.2 0.00 0.00 0.00 52 1017.1
20260902172022 33 162 0.0 4.8 0.00 0.00 0.00 49 1017.2
20260902171520 33 143 1.6 4.8 0.00 0.00 0.00 51 1017.2
20260902171018 33 242 0.0 3.2 0.00 0.00 0.00 52 1017.3
20260902170521 33 242 1.6 3.2 0.00 0.00 0.00 53 1017.4
20260902170026 33 143 1.6 3.2 0.00 0.00 0.00 54 1017.4
20260902165517 33 122 0.0 3.2 0.00 0.00 0.00 55 1017.5
20260902165016 33 121 0.0 3.2 0.00 0.00 0.00 54 1017.5
20260902164523 33 121 1.6 3.2 0.00 0.00 0.00 56 1017.5
20260902164014 33 124 0.0 3.2 0.00 0.00 0.00 57 1017.5
20260902163516 33 122 0.0 3.2 0.00 0.00 0.00 56 1017.6
20260902163013 33 122 1.6 3.2 0.00 0.00 0.00 58 1017.6
20260902162512 33 122 0.0 4.8 0.00 0.00 0.00 57 1017.7
20260902162013 32 119 1.6 4.8 0.00 0.00 0.00 56 1017.8
20260902161521 32 129 1.6 4.8 0.00 0.00 0.00 59 1017.8
20260902161010 32 207 1.6 3.2 0.00 0.00 0.00 58 1017.9
20260902160509 32 207 0.0 3.2 0.00 0.00 0.00 59 1017.9
20260902160009 32 206 1.6 9.7 0.00 0.00 0.00 60 1018.0
20260902155506 32 197 1.6 9.7 0.00 0.00 0.00 60 1018.1
20260902155007 32 169 0.0 6.4 0.00 0.00 0.00 64 1018.1
20260902154512 32 165 0.0 6.4 0.00 0.00 0.00 62 1018.1
20260902154001 32 214 0.0 3.2 0.00 0.00 0.00 63 1018.2
20260902153501 32 179 1.6 3.2 0.00 0.00 0.00 64 1018.3
20260902153101 31 205 0.0 3.2 0.00 0.00 0.00 64 1018.3
20260902152600 31 204 0.0 8.0 0.00 0.00 0.00 65 1018.3
20260902152059 31 203 3.2 11.3 0.00 0.00 0.00 66 1018.3
20260902151559 31 177 3.2 11.3 0.00 0.00 0.00 66 1018.3
20260902151057 31 171 4.8 9.7 0.00 0.00 0.00 67 1018.4
20260902150553 30 150 0.0 4.8 0.00 0.00 0.00 67 1018.4
20260902150054 30 150 0.0 8.0 0.00 0.00 0.00 68 1018.4
20260902145549 30 215 1.6 8.0 0.00 0.00 0.00 70 1018.4
20260902145048 30 224 1.6 9.7 0.00 0.00 0.00 70 1018.4
20260902144555 30 192 4.8 9.7 0.00 0.00 0.00 70 1018.4
20260902144046 29 206 3.2 9.7 0.00 0.00 0.00 72 1018.4
20260902143547 29 191 1.6 9.7 0.00 0.00 0.00 75 1018.3
20260902143043 28 148 1.6 4.8 0.00 0.00 0.00 74 1018.2
20260902142543 28 191 1.6 6.4 0.00 0.00 0.00 76 1018.2
20260902142044 28 205 1.6 6.4 0.00 0.00 0.00 76 1018.2
20260902141540 28 199 0.0 3.2 0.00 0.00 0.00 77 1018.2
20260902141040 28 199 0.0 3.2 0.00 0.00 0.00 78 1018.2
20260902140539 27 198 0.0 3.2 0.00 0.00 0.00 79 1018.3
20260902140037 27 198 0.0 3.2 0.00 0.00 0.00 80 1018.2
20260902135540 27 197 0.0 1.6 0.00 0.00 0.00 81 1018.3
20260902135034 27 232 0.0 0.0 0.00 0.00 0.00 81 1018.3
20260902134534 26 232 0.0 0.0 0.00 0.00 0.00 83 1018.3
20260902134032 26 232 0.0 0.0 0.00 0.00 0.00 84 1018.2
20260902133532 26 232 0.0 0.0 0.00 0.00 0.00 85 1018.2
20260902133046 26 232 0.0 0.0 0.00 0.00 0.00 85 1018.3
20260902132531 26 232 0.0 0.0 0.00 0.00 0.00 86 1018.2
20260902132028 25 232 0.0 0.0 0.00 0.00 0.00 87 1018.2
20260902131526 25 232 0.0 0.0 0.00 0.00 0.00 88 1018.2
20260902131025 25 232 0.0 0.0 0.00 0.00 0.00 89 1018.2
20260902130524 25 232 0.0 0.0 0.00 0.00 0.00 90 1018.2
20260902130027 24 232 0.0 0.0 0.00 0.00 0.00 91 1018.2
20260902125524 24 232 0.0 0.0 0.00 0.00 0.00 92 1018.2
20260902125023 23 232 0.0 0.0 0.00 0.00 0.00 93 1018.2
20260902124523 23 232 0.0 0.0 0.00 0.00 0.00 93 1018.2
20260902124022 23 232 0.0 0.0 0.00 0.00 0.00 94 1018.2
20260902123521 23 232 0.0 0.0 0.00 0.00 0.00 95 1018.1
20260902123020 22 232 0.0 0.0 0.00 0.00 0.00 95 1018.1
20260902122523 22 232 0.0 0.0 0.00 0.00 0.00 95 1018.2
20260902122018 22 232 0.0 0.0 0.00 0.00 0.00 95 1018.1
20260902121518 22 232 0.0 0.0 0.00 0.00 0.00 95 1018.1
20260902121019 22 232 0.0 0.0 0.00 0.00 0.00 95 1018.0
20260902120517 22 232 0.0 0.0 0.00 0.00 0.00 95 1018.0
20260902120015 22 232 0.0 0.0 0.00 0.00 0.00 95 1017.9
20260902115518 22 232 0.0 0.0 0.00 0.00 0.00 95 1017.9
20260902115014 22 232 0.0 0.0 0.00 0.00 0.00 95 1017.8
20260902114514 22 232 0.0 0.0 0.00 0.00 0.00 95 1017.8
20260902114014 22 232 0.0 0.0 0.00 0.00 0.00 95 1017.7
20260902113512 22 232 0.0 0.0 0.00 0.00 0.00 95 1017.7
20260902113012 22 232 0.0 0.0 0.00 0.00 0.00 95 1017.7
20260902112513 22 232 0.0 0.0 0.00 0.00 0.00 95 1017.7
20260902112012 22 232 0.0 0.0 0.00 0.00 0.00 95 1017.6
20260902111511 22 232 0.0 0.0 0.00 0.00 0.00 94 1017.6
20260902111014 22 232 0.0 0.0 0.00 0.00 0.00 94 1017.5
20260902110511 22 232 0.0 0.0 0.00 0.00 0.00 94 1017.5
20260902110014 22 232 0.0 0.0 0.00 0.00 0.00 94 1017.5
20260902105509 22 232 0.0 0.0 0.00 0.00 0.00 94 1017.4
20260902105014 22 232 0.0 0.0 0.00 0.00 0.00 94 1017.4
20260902104508 22 232 0.0 0.0 0.00 0.00 0.00 94 1017.4
20260902104009 22 232 0.0 0.0 0.00 0.00 0.00 94 1017.3
20260902103507 22 232 0.0 0.0 0.00 0.00 0.00 95 1017.3
20260902103007 22 232 0.0 0.0 0.00 0.00 0.00 94 1017.2
20260902102507 22 232 0.0 0.0 0.00 0.00 0.00 94 1017.2
20260902102007 22 232 0.0 0.0 0.00 0.00 0.00 94 1017.2
20260902101507 22 232 0.0 0.0 0.00 0.00 0.00 94 1017.2
20260902101008 22 232 0.0 0.0 0.00 0.00 0.00 94 1017.2
20260902100506 22 232 0.0 0.0 0.00 0.00 0.00 94 1017.2
20260902100006 22 232 0.0 0.0 0.00 0.00 0.00 94 1017.2
20260902095505 22 232 0.0 0.0 0.00 0.00 0.00 93 1017.1
20260902095003 22 232 0.0 0.0 0.00 0.00 0.00 94 1017.1
20260902094503 22 232 0.0 0.0 0.00 0.00 0.00 94 1017.1
20260902094002 22 232 0.0 0.0 0.00 0.00 0.00 94 1017.0
20260902093502 22 232 0.0 0.0 0.00 0.00 0.00 93 1016.9
20260902093001 22 232 0.0 0.0 0.00 0.00 0.00 93 1016.8
20260902092501 22 232 0.0 0.0 0.00 0.00 0.00 93 1016.8
20260902092100 22 232 0.0 0.0 0.00 0.00 0.00 93 1016.8
20260902091611 22 232 0.0 0.0 0.00 0.00 0.00 93 1016.8
20260902091100 22 232 0.0 0.0 0.00 0.00 0.00 93 1016.7
20260902090603 22 232 0.0 0.0 0.00 0.00 0.00 93 1016.8
20260902090105 22 232 0.0 0.0 0.00 0.00 0.00 93 1016.7
20260902085559 22 232 0.0 0.0 0.00 0.00 0.00 93 1016.7
20260902085059 22 232 0.0 0.0 0.00 0.00 0.00 92 1016.6
20260902084607 22 232 0.0 0.0 0.00 0.00 0.00 92 1016.6
20260902084058 22 232 0.0 0.0 0.00 0.00 0.00 92 1016.5
20260902083557 23 232 0.0 0.0 0.00 0.00 0.00 92 1016.4
20260902083114 23 232 0.0 0.0 0.00 0.00 0.00 92 1016.4
20260902082557 23 232 0.0 0.0 0.00 0.00 0.00 92 1016.5
20260902082057 23 232 0.0 0.0 0.00 0.00 0.00 91 1016.4
20260902081557 23 232 0.0 0.0 0.00 0.00 0.00 91 1016.4
20260902081056 23 232 0.0 0.0 0.00 0.00 0.00 91 1016.5
20260902080559 23 232 0.0 0.0 0.00 0.00 0.00 92 1016.4
20260902080057 23 232 0.0 0.0 0.00 0.00 0.00 91 1016.4
20260902075558 23 232 0.0 0.0 0.00 0.00 0.00 91 1016.4
20260902075054 23 232 0.0 0.0 0.00 0.00 0.00 91 1016.4
20260902074558 23 232 0.0 0.0 0.00 0.00 0.00 91 1016.4
20260902074053 23 232 0.0 0.0 0.00 0.00 0.00 91 1016.3
20260902073555 23 232 0.0 0.0 0.00 0.00 0.00 91 1016.3
20260902073057 23 232 0.0 0.0 0.00 0.00 0.00 91 1016.3
20260902072552 23 232 0.0 0.0 0.00 0.00 0.00 91 1016.3
20260902072052 23 232 0.0 0.0 0.00 0.00 0.00 91 1016.3
20260902071552 23 232 0.0 0.0 0.00 0.00 0.00 91 1016.3
20260902071056 23 232 0.0 0.0 0.00 0.00 0.00 91 1016.3
20260902070551 23 232 0.0 0.0 0.00 0.00 0.00 91 1016.4
20260902070050 23 232 0.0 0.0 0.00 0.00 0.00 91 1016.4
20260902065550 23 232 0.0 0.0 0.00 0.00 0.00 91 1016.4
20260902065050 23 232 0.0 0.0 0.00 0.00 0.00 91 1016.4
20260902064551 23 232 0.0 0.0 0.00 0.00 0.00 91 1016.4
20260902064050 23 232 0.0 0.0 0.00 0.00 0.00 91 1016.4
20260902063549 23 232 0.0 0.0 0.00 0.00 0.00 91 1016.5
20260902063049 23 232 0.0 0.0 0.00 0.00 0.00 91 1016.5
20260902062549 23 232 0.0 0.0 0.00 0.00 0.00 91 1016.5
20260902062048 23 232 0.0 0.0 0.00 0.00 0.00 91 1016.5
20260902061554 23 232 0.0 0.0 0.00 0.00 0.00 91 1016.5
20260902061049 24 232 0.0 0.0 0.00 0.00 0.00 91 1016.5
20260902060549 24 232 0.0 0.0 0.00 0.00 0.00 91 1016.4
20260902060045 24 232 0.0 0.0 0.00 0.00 0.00 90 1016.6
20260902055545 24 232 0.0 0.0 0.00 0.00 0.00 90 1016.6
20260902055045 24 232 0.0 0.0 0.00 0.00 0.00 90 1016.6
20260902054544 24 232 0.0 0.0 0.00 0.00 0.00 90 1016.6
20260902054043 24 232 0.0 0.0 0.00 0.00 0.00 90 1016.7
20260902053543 24 232 0.0 0.0 0.00 0.00 0.00 90 1016.8
20260902053043 24 232 0.0 0.0 0.00 0.00 0.00 89 1016.8
20260902052542 24 232 0.0 0.0 0.00 0.00 0.00 89 1016.8
20260902052042 24 232 0.0 0.0 0.00 0.00 0.00 89 1016.7
20260902051543 24 232 0.0 0.0 0.00 0.00 0.00 89 1016.8
20260902051043 24 232 0.0 0.0 0.00 0.00 0.00 89 1016.8
20260902050544 24 234 0.0 0.0 0.00 0.00 0.00 89 1016.8
20260902050041 24 233 0.0 0.0 0.00 0.00 0.00 89 1016.7
20260902045542 24 234 0.0 0.0 0.00 0.00 0.00 89 1016.6
20260902045045 24 233 0.0 0.0 0.00 0.00 0.00 89 1016.7
20260902044546 24 234 0.0 0.0 0.00 0.00 0.00 89 1016.7
20260902044040 25 234 0.0 0.0 0.00 0.00 0.00 88 1016.7
20260902043540 25 234 0.0 0.0 0.00 0.00 0.00 88 1016.7
20260902043047 25 233 0.0 0.0 0.00 0.00 0.00 88 1016.6
20260902042543 25 234 0.0 0.0 0.00 0.00 0.00 88 1016.7
20260902042038 25 233 0.0 0.0 0.00 0.00 0.00 88 1016.7
20260902041540 25 233 0.0 0.0 0.00 0.00 0.00 87 1016.8
20260902041038 25 234 0.0 0.0 0.00 0.00 0.00 87 1016.8
20260902040536 25 233 0.0 0.0 0.00 0.00 0.00 87 1016.8
20260902040036 25 234 0.0 0.0 0.00 0.00 0.00 87 1016.8
20260902035535 25 234 0.0 0.0 0.00 0.00 0.00 87 1016.8
20260902035035 25 233 0.0 0.0 0.00 0.00 0.00 87 1016.8
20260902034535 25 233 0.0 0.0 0.00 0.00 0.00 87 1016.9
20260902034104 25 233 0.0 0.0 0.00 0.00 0.00 86 1016.9
20260902033535 25 233 0.0 0.0 0.00 0.00 0.00 86 1016.8
20260902033041 25 233 0.0 0.0 0.00 0.00 0.00 85 1016.9
20260902032535 25 234 0.0 0.0 0.00 0.00 0.00 85 1016.8
20260902032035 25 234 0.0 0.0 0.00 0.00 0.00 84 1016.8
20260902031539 25 234 0.0 0.0 0.00 0.00 0.00 84 1016.7
20260902031034 25 233 0.0 0.0 0.00 0.00 0.00 84 1016.8
20260902030533 25 234 0.0 0.0 0.00 0.00 0.00 83 1016.8
20260902030033 25 233 0.0 0.0 0.00 0.00 0.00 83 1016.9
20260902025533 25 234 0.0 0.0 0.00 0.00 0.00 83 1016.9
20260902025033 26 234 0.0 0.0 0.00 0.00 0.00 84 1016.9
20260902024533 26 233 0.0 0.0 0.00 0.00 0.00 83 1016.8
20260902024032 26 233 0.0 0.0 0.00 0.00 0.00 81 1016.8
20260902023537 26 234 0.0 0.0 0.00 0.00 0.00 82 1016.8
20260902023036 26 234 0.0 0.0 0.00 0.00 0.00 82 1016.8
20260902022533 26 233 0.0 0.0 0.00 0.00 0.00 82 1016.8
20260902022038 26 234 0.0 0.0 0.00 0.00 0.00 81 1016.7
20260902021532 26 233 0.0 0.0 0.00 0.00 0.00 81 1016.7
20260902021034 26 234 0.0 0.0 0.00 0.00 0.00 81 1016.6
20260902020532 26 234 0.0 0.0 0.00 0.00 0.00 80 1016.5
20260902020032 26 233 0.0 0.0 0.00 0.00 0.00 79 1016.4
20260902015532 26 234 0.0 0.0 0.00 0.00 0.00 79 1016.5
20260902015031 26 233 0.0 0.0 0.00 0.00 0.00 79 1016.4
20260902014533 26 233 0.0 0.0 0.00 0.00 0.00 78 1016.4
20260902014033 26 234 0.0 0.0 0.00 0.00 0.00 78 1016.3
20260902013531 27 234 0.0 0.0 0.00 0.00 0.00 79 1016.2
20260902013032 27 234 0.0 0.0 0.00 0.00 0.00 78 1016.1
20260902012532 27 234 0.0 0.0 0.00 0.00 0.00 77 1016.1
20260902012031 27 234 0.0 0.0 0.00 0.00 0.00 78 1016.0
20260902011538 27 234 0.0 0.0 0.00 0.00 0.00 77 1015.9
20260902011031 27 233 0.0 0.0 0.00 0.00 0.00 76 1015.9
20260902010531 27 233 0.0 0.0 0.00 0.00 0.00 77 1016.0
20260902010029 27 234 0.0 0.0 0.00 0.00 0.00 76 1015.9
20260902005530 27 233 0.0 0.0 0.00 0.00 0.00 75 1015.8
20260902005030 27 234 0.0 0.0 0.00 0.00 0.00 75 1015.7
20260902004533 27 234 0.0 0.0 0.00 0.00 0.00 73 1015.6
20260902004032 27 234 0.0 0.0 0.00 0.00 0.00 73 1015.6
20260902003529 27 234 0.0 0.0 0.00 0.00 0.00 72 1015.6
20260902003030 28 234 0.0 0.0 0.00 0.00 0.00 72 1015.6
20260902002531 28 234 0.0 0.0 0.00 0.00 0.00 70 1015.6
20260902002029 28 234 0.0 0.0 0.00 0.00 0.00 71 1015.6